Time,TemperatureF,DewpointF,PressureIn,WindDirection,WindDirectionDegrees,WindSpeedMPH,WindSpeedGustMPH,Humidity,HourlyPrecipIn,Conditions,Clouds,dailyrainin,SoftwareType,DateUTC
2013-02-06 00:00:00,23.8,19.1,29.96,SE,127,0.0,0.0,82,0.00,,,0.00,WeatherCatV1.12B45,2013-02-06 05:00:00,
2013-02-06 00:05:00,23.8,19.1,29.96,SE,127,0.0,0.0,82,0.00,,,0.00,WeatherCatV1.12B45,2013-02-06 05:05:00,
2013-02-06 00:10:00,23.8,19.4,29.95,SE,127,0.0,0.0,83,0.00,,,0.00,WeatherCatV1.12B45,2013-02-06 05:10:00,
2013-02-06 00:15:00,23.8,19.4,29.95,SE,127,0.0,0.0,83,0.00,,,0.00,WeatherCatV1.12B45,2013-02-06 05:15:00,
2013-02-06 00:20:00,23.8,19.4,29.96,SE,127,0.0,0.0,83,0.00,,,0.00,WeatherCatV1.12B45,2013-02-06 05:20:00,
2013-02-06 00:25:00,23.9,19.5,29.96,SE,127,0.0,0.0,83,0.00,,,0.00,WeatherCatV1.12B45,2013-02-06 05:25:00,
2013-02-06 00:30:00,23.9,19.8,29.96,SE,127,0.0,0.0,84,0.00,,,0.00,WeatherCatV1.12B45,2013-02-06 05:30:00,
2013-02-06 00:35:00,24.0,19.9,29.95,SE,127,0.0,0.0,84,0.00,,,0.00,WeatherCatV1.12B45,2013-02-06 05:35:00,
2013-02-06 00:40:00,23.9,19.8,29.95,SE,127,0.0,0.0,84,0.00,,,0.00,WeatherCatV1.12B45,2013-02-06 05:40:00,
2013-02-06 00:45:00,23.9,19.8,29.95,SE,127,0.0,0.0,84,0.00,,,0.00,WeatherCatV1.12B45,2013-02-06 05:45:00,
2013-02-06 00:50:00,23.9,20.1,29.95,SE,127,0.0,0.0,85,0.00,,,0.00,WeatherCatV1.12B45,2013-02-06 05:50:00,
2013-02-06 00:55:00,24.0,20.2,29.95,SE,127,0.0,0.0,85,0.00,,,0.00,WeatherCatV1.12B45,2013-02-06 05:55:00,
2013-02-06 01:00:00,23.8,20.0,29.95,SE,127,0.0,0.0,85,0.00,,,0.00,WeatherCatV1.12B45,2013-02-06 06:00:00,
2013-02-06 01:05:00,23.8,20.2,29.95,SE,127,0.0,0.0,86,0.00,,,0.00,WeatherCatV1.12B45,2013-02-06 06:05:00,
2013-02-06 01:10:00,23.8,20.0,29.95,SE,127,0.0,0.0,85,0.00,,,0.00,WeatherCatV1.12B45,2013-02-06 06:10:00,
2013-02-06 01:15:00,23.9,20.3,29.96,SE,127,0.0,0.0,86,0.00,,,0.00,WeatherCatV1.12B45,2013-02-06 06:15:00,
2013-02-06 01:20:00,24.1,20.8,29.96,SE,127,0.0,0.0,87,0.00,,,0.00,WeatherCatV1.12B45,2013-02-06 06:20:00,
2013-02-06 01:25:00,24.1,20.5,29.96,SE,127,0.0,0.0,86,0.00,,,0.00,WeatherCatV1.12B45,2013-02-06 06:25:00,
2013-02-06 01:30:00,23.9,20.6,29.95,SE,127,0.0,0.0,87,0.00,,,0.00,WeatherCatV1.12B45,2013-02-06 06:30:00,
2013-02-06 01:35:00,23.8,20.5,29.95,SE,127,0.0,0.0,87,0.00,,,0.00,WeatherCatV1.12B45,2013-02-06 06:35:00,
2013-02-06 01:40:00,23.8,20.5,29.95,SE,127,0.0,0.0,87,0.00,,,0.00,WeatherCatV1.12B45,2013-02-06 06:40:00,
2013-02-06 01:45:00,23.7,20.4,29.95,SE,127,0.0,0.0,87,0.00,,,0.00,WeatherCatV1.12B45,2013-02-06 06:45:00,
2013-02-06 01:50:00,23.7,20.4,29.96,SE,127,0.0,0.0,87,0.00,,,0.00,WeatherCatV1.12B45,2013-02-06 06:50:00,
2013-02-06 01:55:00,23.7,20.4,29.96,SE,127,0.0,0.0,87,0.00,,,0.00,WeatherCatV1.12B45,2013-02-06 06:55:00,
2013-02-06 02:00:00,23.6,20.6,29.96,SE,127,0.0,0.0,88,0.00,,,0.00,WeatherCatV1.12B45,2013-02-06 07:00:00,
2013-02-06 02:05:00,23.5,20.5,29.96,SE,127,0.0,0.0,88,0.00,,,0.00,WeatherCatV1.12B45,2013-02-06 07:05:00,
2013-02-06 02:10:00,23.5,20.5,29.95,SE,127,0.0,0.0,88,0.00,,,0.00,WeatherCatV1.12B45,2013-02-06 07:10:00,
2013-02-06 02:15:00,23.5,20.5,29.95,SE,127,0.0,0.0,88,0.00,,,0.00,WeatherCatV1.12B45,2013-02-06 07:15:00,
2013-02-06 02:20:00,23.5,20.5,29.95,SE,127,0.0,0.0,88,0.00,,,0.00,WeatherCatV1.12B45,2013-02-06 07:20:00,
2013-02-06 02:25:00,23.4,20.4,29.95,SE,127,0.0,0.0,88,0.00,,,0.00,WeatherCatV1.12B45,2013-02-06 07:25:00,
2013-02-06 02:30:00,23.4,20.4,29.95,SE,127,0.0,0.0,88,0.00,,,0.00,WeatherCatV1.12B45,2013-02-06 07:30:00,
2013-02-06 02:35:00,23.5,20.7,29.94,SE,127,0.0,0.0,89,0.00,,,0.00,WeatherCatV1.12B45,2013-02-06 07:35:00,
2013-02-06 02:40:00,23.5,20.5,29.95,SE,127,0.0,0.0,88,0.00,,,0.00,WeatherCatV1.12B45,2013-02-06 07:40:00,
2013-02-06 02:45:00,23.5,20.7,29.94,SE,127,0.0,0.0,89,0.00,,,0.00,WeatherCatV1.12B45,2013-02-06 07:45:00,
2013-02-06 02:50:00,23.5,20.7,29.94,SE,127,0.0,0.0,89,0.00,,,0.00,WeatherCatV1.12B45,2013-02-06 07:50:00,
2013-02-06 02:55:00,23.4,20.6,29.95,SE,127,0.0,0.0,89,0.00,,,0.00,WeatherCatV1.12B45,2013-02-06 07:55:00,
2013-02-06 03:00:00,23.4,20.9,29.94,SE,127,0.0,0.0,90,0.00,,,0.00,WeatherCatV1.12B45,2013-02-06 08:00:00,
2013-02-06 03:05:00,23.4,20.9,29.94,SE,127,0.0,0.0,90,0.00,,,0.00,WeatherCatV1.12B45,2013-02-06 08:05:00,
2013-02-06 03:10:00,23.4,20.6,29.94,SE,127,0.0,0.0,89,0.00,,,0.00,WeatherCatV1.12B45,2013-02-06 08:10:00,
2013-02-06 03:15:00,23.4,20.6,29.93,SE,127,0.0,0.0,89,0.00,,,0.00,WeatherCatV1.12B45,2013-02-06 08:15:00,
2013-02-06 03:20:00,23.2,20.7,29.93,SE,127,0.0,0.0,90,0.00,,,0.00,WeatherCatV1.12B45,2013-02-06 08:20:00,
2013-02-06 03:25:00,23.1,20.6,29.93,SE,127,0.0,0.0,90,0.00,,,0.00,WeatherCatV1.12B45,2013-02-06 08:25:00,
2013-02-06 03:30:00,22.9,20.4,29.93,SE,127,0.0,0.0,90,0.00,,,0.00,WeatherCatV1.12B45,2013-02-06 08:30:00,
2013-02-06 03:35:00,22.8,20.3,29.94,SE,127,0.0,0.0,90,0.00,,,0.00,WeatherCatV1.12B45,2013-02-06 08:35:00,
2013-02-06 03:40:00,22.6,20.1,29.94,SE,127,0.0,0.0,90,0.00,,,0.00,WeatherCatV1.12B45,2013-02-06 08:40:00,
2013-02-06 03:45:00,22.5,20.0,29.94,SE,127,0.0,0.0,90,0.00,,,0.00,WeatherCatV1.12B45,2013-02-06 08:45:00,
2013-02-06 03:50:00,22.3,19.6,29.94,SE,127,0.0,0.0,89,0.00,,,0.00,WeatherCatV1.12B45,2013-02-06 08:50:00,
2013-02-06 03:55:00,22.2,19.7,29.94,SE,127,0.0,0.0,90,0.00,,,0.00,WeatherCatV1.12B45,2013-02-06 08:55:00,
2013-02-06 04:00:00,22.0,19.3,29.94,SE,127,0.0,0.0,89,0.00,,,0.00,WeatherCatV1.12B45,2013-02-06 09:00:00,
2013-02-06 04:05:00,22.0,19.5,29.94,SE,127,0.0,0.0,90,0.00,,,0.00,WeatherCatV1.12B45,2013-02-06 09:05:00,
2013-02-06 04:10:00,22.0,19.5,29.94,SE,127,0.0,0.0,90,0.00,,,0.00,WeatherCatV1.12B45,2013-02-06 09:10:00,
2013-02-06 04:15:00,21.9,19.4,29.94,SE,127,0.0,0.0,90,0.00,,,0.00,WeatherCatV1.12B45,2013-02-06 09:15:00,
2013-02-06 04:20:00,21.7,19.2,29.94,SE,127,0.0,0.0,90,0.00,,,0.00,WeatherCatV1.12B45,2013-02-06 09:20:00,
2013-02-06 04:25:00,21.6,19.1,29.95,SE,127,0.0,0.0,90,0.00,,,0.00,WeatherCatV1.12B45,2013-02-06 09:25:00,
2013-02-06 04:30:00,21.6,19.1,29.94,SE,127,0.0,0.0,90,0.00,,,0.00,WeatherCatV1.12B45,2013-02-06 09:30:00,
2013-02-06 04:35:00,21.4,18.9,29.94,SE,127,0.0,0.0,90,0.00,,,0.00,WeatherCatV1.12B45,2013-02-06 09:35:00,
2013-02-06 04:40:00,21.2,18.7,29.94,SE,127,0.0,0.0,90,0.00,,,0.00,WeatherCatV1.12B45,2013-02-06 09:40:00,
2013-02-06 04:45:00,21.3,18.8,29.95,SE,127,0.0,0.0,90,0.00,,,0.00,WeatherCatV1.12B45,2013-02-06 09:45:00,
2013-02-06 04:50:00,21.1,18.6,29.95,SE,127,0.0,0.0,90,0.00,,,0.00,WeatherCatV1.12B45,2013-02-06 09:50:00,
2013-02-06 04:55:00,21.1,18.6,29.95,SE,127,0.0,0.0,90,0.00,,,0.00,WeatherCatV1.12B45,2013-02-06 09:55:00,
2013-02-06 05:00:00,21.1,18.6,29.95,SE,127,0.0,0.0,90,0.00,,,0.00,WeatherCatV1.12B45,2013-02-06 10:00:00,
2013-02-06 05:05:00,21.3,18.8,29.96,SE,127,0.0,0.0,90,0.00,,,0.00,WeatherCatV1.12B45,2013-02-06 10:05:00,
2013-02-06 05:10:00,21.3,18.8,29.96,SE,127,0.0,0.0,90,0.00,,,0.00,WeatherCatV1.12B45,2013-02-06 10:10:00,
2013-02-06 05:15:00,21.4,18.9,29.96,SE,127,0.0,0.0,90,0.00,,,0.00,WeatherCatV1.12B45,2013-02-06 10:15:00,
2013-02-06 05:20:00,21.4,19.2,29.96,SE,127,0.0,0.0,91,0.00,,,0.00,WeatherCatV1.12B45,2013-02-06 10:20:00,
2013-02-06 05:25:00,21.4,18.9,29.96,SE,127,0.0,0.0,90,0.00,,,0.00,WeatherCatV1.12B45,2013-02-06 10:25:00,
2013-02-06 05:30:00,21.4,18.9,29.96,SE,127,0.0,0.0,90,0.00,,,0.00,WeatherCatV1.12B45,2013-02-06 10:30:00,
2013-02-06 05:35:00,21.4,19.2,29.96,SE,127,0.0,0.0,91,0.00,,,0.00,WeatherCatV1.12B45,2013-02-06 10:35:00,
2013-02-06 05:40:00,21.4,18.9,29.96,SE,127,0.0,0.0,90,0.00,,,0.00,WeatherCatV1.12B45,2013-02-06 10:40:00,
2013-02-06 05:45:00,21.6,19.1,29.96,SE,127,0.0,0.0,90,0.00,,,0.00,WeatherCatV1.12B45,2013-02-06 10:45:00,
2013-02-06 05:50:00,21.6,19.4,29.97,SE,127,0.0,0.0,91,0.00,,,0.00,WeatherCatV1.12B45,2013-02-06 10:50:00,
2013-02-06 05:55:00,21.4,18.9,29.97,SE,127,0.0,0.0,90,0.00,,,0.00,WeatherCatV1.12B45,2013-02-06 10:55:00,
2013-02-06 06:00:00,21.4,18.9,29.97,SE,127,0.0,0.0,90,0.00,,,0.00,WeatherCatV1.12B45,2013-02-06 11:00:00,
2013-02-06 06:05:00,21.3,18.8,29.97,SE,127,0.0,0.0,90,0.00,,,0.00,WeatherCatV1.12B45,2013-02-06 11:05:00,
2013-02-06 06:07:00,21.2,19.0,29.97,SE,127,0.0,0.0,91,0.00,,,0.00,WeatherCatV1.12B45,2013-02-06 11:07:00,
2013-02-06 06:12:00,21.2,19.0,29.97,SE,127,0.0,0.0,91,0.00,,,0.00,WeatherCatV1.12B45,2013-02-06 11:12:00,
2013-02-06 06:17:00,21.1,18.6,29.97,SE,127,0.0,0.0,90,0.00,,,0.00,WeatherCatV1.12B45,2013-02-06 11:17:00,
2013-02-06 06:22:00,21.3,19.1,29.97,SE,127,0.0,0.0,91,0.00,,,0.00,WeatherCatV1.12B45,2013-02-06 11:22:00,
2013-02-06 06:27:00,21.3,19.1,29.98,SE,127,0.0,0.0,91,0.00,,,0.00,WeatherCatV1.12B45,2013-02-06 11:27:00,
2013-02-06 06:32:00,21.4,19.2,29.98,SE,127,0.0,0.0,91,0.00,,,0.00,WeatherCatV1.12B45,2013-02-06 11:32:00,
2013-02-06 06:37:00,21.4,19.2,29.98,SE,127,0.0,0.0,91,0.00,,,0.00,WeatherCatV1.12B45,2013-02-06 11:37:00,
2013-02-06 06:42:00,21.4,19.2,29.98,SE,127,0.0,0.0,91,0.00,,,0.00,WeatherCatV1.12B45,2013-02-06 11:42:00,
2013-02-06 06:47:00,21.2,19.0,29.97,SE,127,0.0,0.0,91,0.00,,,0.00,WeatherCatV1.12B45,2013-02-06 11:47:00,
2013-02-06 06:52:00,21.3,18.8,29.98,SE,127,0.0,0.0,90,0.00,,,0.00,WeatherCatV1.12B45,2013-02-06 11:52:00,
2013-02-06 06:57:00,21.2,19.0,29.98,SE,127,0.0,0.0,91,0.00,,,0.00,WeatherCatV1.12B45,2013-02-06 11:57:00,
2013-02-06 07:02:00,21.3,19.1,29.98,SE,127,0.0,0.0,91,0.00,,,0.00,WeatherCatV1.12B45,2013-02-06 12:02:00,
2013-02-06 07:07:00,21.3,18.8,29.99,SE,127,0.0,0.0,90,0.00,,,0.00,WeatherCatV1.12B45,2013-02-06 12:07:00,
2013-02-06 07:12:00,21.3,19.1,29.99,SE,127,0.0,0.0,91,0.00,,,0.00,WeatherCatV1.12B45,2013-02-06 12:12:00,
2013-02-06 07:17:00,21.2,19.0,29.99,SE,127,0.0,0.0,91,0.00,,,0.00,WeatherCatV1.12B45,2013-02-06 12:17:00,
2013-02-06 07:22:00,21.4,19.2,29.99,SE,127,0.0,0.0,91,0.00,,,0.00,WeatherCatV1.12B45,2013-02-06 12:22:00,
2013-02-06 07:27:00,21.5,19.3,30.00,SE,127,0.0,0.0,91,0.00,,,0.00,WeatherCatV1.12B45,2013-02-06 12:27:00,
2013-02-06 07:32:00,21.9,19.7,29.99,SE,127,0.0,0.0,91,0.00,,,0.00,WeatherCatV1.12B45,2013-02-06 12:32:00,
2013-02-06 07:37:00,22.2,20.0,29.99,SE,127,0.0,0.0,91,0.00,,,0.00,WeatherCatV1.12B45,2013-02-06 12:37:00,
2013-02-06 07:42:00,22.5,20.3,29.99,SE,127,0.0,0.0,91,0.00,,,0.00,WeatherCatV1.12B45,2013-02-06 12:42:00,
2013-02-06 07:47:00,22.5,20.3,30.00,SE,127,0.0,0.0,91,0.00,,,0.00,WeatherCatV1.12B45,2013-02-06 12:47:00,
2013-02-06 07:52:00,22.5,20.3,30.00,SE,127,0.0,0.0,91,0.00,,,0.00,WeatherCatV1.12B45,2013-02-06 12:52:00,
2013-02-06 07:57:00,22.6,20.4,29.99,SE,127,0.0,0.0,91,0.00,,,0.00,WeatherCatV1.12B45,2013-02-06 12:57:00,
2013-02-06 08:02:00,22.8,20.3,30.00,SE,127,0.0,0.0,90,0.00,,,0.00,WeatherCatV1.12B45,2013-02-06 13:02:00,
2013-02-06 08:07:00,23.2,21.0,30.00,SE,127,0.0,0.0,91,0.00,,,0.00,WeatherCatV1.12B45,2013-02-06 13:07:00,
2013-02-06 08:12:00,23.6,21.4,30.00,SE,127,0.0,0.0,91,0.00,,,0.00,WeatherCatV1.12B45,2013-02-06 13:12:00,
2013-02-06 08:17:00,23.8,21.3,30.00,SE,127,0.0,0.0,90,0.00,,,0.00,WeatherCatV1.12B45,2013-02-06 13:17:00,
2013-02-06 08:22:00,24.0,21.2,30.00,SE,127,0.0,0.0,89,0.00,,,0.00,WeatherCatV1.12B45,2013-02-06 13:22:00,
2013-02-06 08:27:00,24.1,21.3,30.00,SE,127,0.0,0.0,89,0.00,,,0.00,WeatherCatV1.12B45,2013-02-06 13:27:00,
2013-02-06 08:32:00,24.5,21.7,30.00,SE,127,0.0,1.0,89,0.00,,,0.00,WeatherCatV1.12B45,2013-02-06 13:32:00,
2013-02-06 08:37:00,25.0,22.0,30.01,SE,127,0.0,0.0,88,0.00,,,0.00,WeatherCatV1.12B45,2013-02-06 13:37:00,
2013-02-06 08:42:00,25.1,22.1,30.01,SE,127,0.0,2.0,88,0.00,,,0.00,WeatherCatV1.12B45,2013-02-06 13:42:00,
2013-02-06 08:47:00,25.1,21.8,30.01,SE,127,0.0,0.0,87,0.00,,,0.00,WeatherCatV1.12B45,2013-02-06 13:47:00,
2013-02-06 08:52:00,25.4,22.1,30.01,SE,127,0.0,0.0,87,0.00,,,0.00,WeatherCatV1.12B45,2013-02-06 13:52:00,
2013-02-06 08:56:00,26.0,22.7,30.01,SE,127,0.0,0.0,87,0.00,,,0.00,WeatherCatV1.12B45,2013-02-06 13:56:00,
2013-02-06 09:01:00,26.3,22.7,30.00,SE,127,0.0,2.0,86,0.00,,,0.00,WeatherCatV1.12B45,2013-02-06 14:01:00,
2013-02-06 09:04:00,26.6,23.3,30.01,SE,127,1.0,2.0,87,0.00,,,0.00,WeatherCatV1.12B45,2013-02-06 14:04:00,
2013-02-06 09:09:00,26.8,23.2,30.01,SE,127,0.0,4.0,86,0.00,,,0.00,WeatherCatV1.12B45,2013-02-06 14:09:00,
2013-02-06 09:14:00,27.2,23.3,30.01,SE,127,0.0,0.0,85,0.00,,,0.00,WeatherCatV1.12B45,2013-02-06 14:14:00,
2013-02-06 09:19:00,27.3,23.1,30.00,SE,127,1.0,2.0,84,0.00,,,0.01,WeatherCatV1.12B45,2013-02-06 14:19:00,
2013-02-06 09:24:00,27.9,24.0,30.00,SE,127,3.0,4.0,85,0.00,,,0.01,WeatherCatV1.12B45,2013-02-06 14:24:00,
2013-02-06 09:29:00,28.5,24.6,30.00,SE,127,3.0,3.0,85,0.00,,,0.01,WeatherCatV1.12B45,2013-02-06 14:29:00,
2013-02-06 09:31:00,28.7,24.8,30.00,SE,127,1.0,4.0,85,0.00,,,0.01,WeatherCatV1.12B45,2013-02-06 14:31:00,
2013-02-06 09:36:00,29.1,24.9,30.00,SE,127,3.0,5.0,84,0.00,,,0.01,WeatherCatV1.12B45,2013-02-06 14:36:00,
2013-02-06 09:41:00,29.4,25.2,30.00,SE,127,1.0,4.0,84,0.00,,,0.01,WeatherCatV1.12B45,2013-02-06 14:41:00,
2013-02-06 09:46:00,29.9,25.7,30.00,SE,128,3.0,5.0,84,0.00,,,0.01,WeatherCatV1.12B45,2013-02-06 14:46:00,
2013-02-06 09:51:00,30.2,26.0,30.00,SE,127,2.0,5.0,84,0.00,,,0.01,WeatherCatV1.12B45,2013-02-06 14:51:00,
2013-02-06 09:56:00,30.2,25.4,30.00,SE,128,2.0,4.0,82,0.00,,,0.01,WeatherCatV1.12B45,2013-02-06 14:56:00,
2013-02-06 10:01:00,30.6,26.4,30.00,SE,128,0.0,3.0,84,0.00,,,0.01,WeatherCatV1.12B45,2013-02-06 15:01:00,
2013-02-06 10:06:00,31.1,26.6,30.00,SE,127,2.0,5.0,83,0.00,,,0.01,WeatherCatV1.12B45,2013-02-06 15:06:00,
2013-02-06 10:11:00,31.4,26.8,29.99,SE,128,0.0,4.0,83,0.00,,,0.01,WeatherCatV1.12B45,2013-02-06 15:11:00,
2013-02-06 10:16:00,31.5,26.1,29.99,SE,128,0.0,2.0,80,0.00,,,0.01,WeatherCatV1.12B45,2013-02-06 15:16:00,
2013-02-06 10:21:00,32.1,26.6,29.99,SE,128,1.0,2.0,80,0.00,,,0.01,WeatherCatV1.12B45,2013-02-06 15:21:00,
2013-02-06 10:26:00,33.0,27.5,29.99,SE,128,3.0,5.0,80,0.00,,,0.01,WeatherCatV1.12B45,2013-02-06 15:26:00,
2013-02-06 10:31:00,33.6,27.5,29.99,SE,128,2.0,3.0,78,0.00,,,0.01,WeatherCatV1.12B45,2013-02-06 15:31:00,
2013-02-06 10:36:00,33.9,26.8,29.99,SSW,200,8.0,10.0,75,0.00,,,0.01,WeatherCatV1.12B45,2013-02-06 15:36:00,
2013-02-06 10:41:00,34.1,26.0,29.99,SW,220,5.0,6.0,72,0.00,,,0.01,WeatherCatV1.12B45,2013-02-06 15:41:00,
2013-02-06 10:46:00,33.8,24.0,29.99,WSW,257,3.0,7.0,67,0.00,,,0.01,WeatherCatV1.12B45,2013-02-06 15:46:00,
2013-02-06 10:51:00,33.6,24.2,30.00,West,264,6.0,6.0,68,0.00,,,0.01,WeatherCatV1.12B45,2013-02-06 15:51:00,
2013-02-06 10:56:00,33.3,23.5,30.00,West,266,2.0,6.0,67,0.00,,,0.01,WeatherCatV1.12B45,2013-02-06 15:56:00,
2013-02-06 11:01:00,33.5,25.1,30.00,WSW,251,2.0,3.0,71,0.00,,,0.01,WeatherCatV1.12B45,2013-02-06 16:01:00,
2013-02-06 11:06:00,33.6,23.8,30.00,West,265,3.0,7.0,67,0.00,,,0.01,WeatherCatV1.12B45,2013-02-06 16:06:00,
2013-02-06 11:11:00,33.7,24.3,30.00,West,267,2.0,7.0,68,0.00,,,0.01,WeatherCatV1.12B45,2013-02-06 16:11:00,
2013-02-06 11:16:00,34.2,23.3,30.00,WNW,288,5.0,11.0,64,0.00,,,0.01,WeatherCatV1.12B45,2013-02-06 16:16:00,
2013-02-06 11:21:00,34.3,23.0,30.00,West,271,3.0,6.0,63,0.00,,,0.01,WeatherCatV1.12B45,2013-02-06 16:21:00,
2013-02-06 11:26:00,34.8,23.1,29.99,West,274,3.0,12.0,62,0.00,,,0.01,WeatherCatV1.12B45,2013-02-06 16:26:00,
2013-02-06 11:31:00,34.9,23.6,29.99,West,278,1.0,3.0,63,0.00,,,0.01,WeatherCatV1.12B45,2013-02-06 16:31:00,
2013-02-06 11:36:00,35.4,23.7,30.00,West,279,5.0,6.0,62,0.00,,,0.01,WeatherCatV1.12B45,2013-02-06 16:36:00,
2013-02-06 11:41:00,35.2,23.1,30.00,West,271,8.0,14.0,61,0.00,,,0.01,WeatherCatV1.12B45,2013-02-06 16:41:00,
2013-02-06 11:46:00,35.2,23.5,29.99,WSW,258,2.0,6.0,62,0.00,,,0.01,WeatherCatV1.12B45,2013-02-06 16:46:00,
2013-02-06 11:51:00,35.5,23.0,29.99,West,272,1.0,7.0,60,0.00,,,0.01,WeatherCatV1.12B45,2013-02-06 16:51:00,
2013-02-06 11:56:00,36.1,23.6,29.99,West,276,2.0,10.0,60,0.00,,,0.01,WeatherCatV1.12B45,2013-02-06 16:56:00,
2013-02-06 12:01:00,36.5,24.0,29.98,SSW,207,5.0,8.0,60,0.00,,,0.01,WeatherCatV1.12B45,2013-02-06 17:01:00,
2013-02-06 12:06:00,36.9,23.5,29.98,WNW,289,7.0,11.0,58,0.00,,,0.01,WeatherCatV1.12B45,2013-02-06 17:06:00,
2013-02-06 12:11:00,36.3,22.5,29.98,WNW,283,6.0,10.0,57,0.00,,,0.01,WeatherCatV1.12B45,2013-02-06 17:11:00,
2013-02-06 12:17:00,35.7,22.8,29.98,NW,307,2.0,7.0,59,0.00,,,0.01,WeatherCatV1.12B45,2013-02-06 17:17:00,
2013-02-06 12:22:00,35.6,23.1,29.98,WNW,282,8.0,9.0,60,0.00,,,0.01,WeatherCatV1.12B45,2013-02-06 17:22:00,
2013-02-06 12:27:00,36.1,22.8,29.98,West,263,7.0,13.0,58,0.00,,,0.01,WeatherCatV1.12B45,2013-02-06 17:27:00,
2013-02-06 12:32:00,36.5,23.6,29.97,WSW,254,7.0,8.0,59,0.00,,,0.01,WeatherCatV1.12B45,2013-02-06 17:32:00,
2013-02-06 12:37:00,36.6,23.6,29.98,SW,227,7.0,8.0,59,0.00,,,0.01,WeatherCatV1.12B45,2013-02-06 17:37:00,
2013-02-06 12:42:00,37.0,23.2,29.98,WNW,291,4.0,11.0,57,0.00,,,0.01,WeatherCatV1.12B45,2013-02-06 17:42:00,
2013-02-06 12:47:00,36.7,22.5,29.98,NNW,328,7.0,9.0,56,0.00,,,0.01,WeatherCatV1.12B45,2013-02-06 17:47:00,
2013-02-06 12:52:00,37.0,23.6,29.99,West,281,6.0,15.0,58,0.00,,,0.01,WeatherCatV1.12B45,2013-02-06 17:52:00,
2013-02-06 12:53:00,37.1,22.4,29.99,WNW,291,4.0,15.0,55,0.00,,,0.01,WeatherCatV1.12B45,2013-02-06 17:53:00,
2013-02-06 12:58:00,36.6,22.4,29.99,WSW,238,7.0,13.0,56,0.00,,,0.01,WeatherCatV1.12B45,2013-02-06 17:58:00,
2013-02-06 13:03:00,36.2,21.2,29.99,West,263,5.0,11.0,54,0.00,,,0.01,WeatherCatV1.12B45,2013-02-06 18:03:00,
2013-02-06 13:08:00,35.8,21.7,29.99,SW,230,3.0,7.0,56,0.00,,,0.01,WeatherCatV1.12B45,2013-02-06 18:08:00,
2013-02-06 13:13:00,35.8,21.7,29.99,North,9,5.0,6.0,56,0.00,,,0.01,WeatherCatV1.12B45,2013-02-06 18:13:00,
2013-02-06 13:18:00,35.8,21.2,29.99,West,281,5.0,11.0,55,0.00,,,0.01,WeatherCatV1.12B45,2013-02-06 18:18:00,
2013-02-06 13:23:00,35.5,21.0,29.99,West,265,2.0,14.0,55,0.00,,,0.01,WeatherCatV1.12B45,2013-02-06 18:23:00,
2013-02-06 13:27:00,35.5,21.4,29.99,NNW,331,9.0,9.0,56,0.00,,,0.01,WeatherCatV1.12B45,2013-02-06 18:27:00,
2013-02-06 13:32:00,35.6,21.0,29.99,West,261,5.0,8.0,55,0.00,,,0.01,WeatherCatV1.12B45,2013-02-06 18:32:00,
2013-02-06 13:37:00,35.8,21.2,29.99,WSW,248,5.0,11.0,55,0.00,,,0.01,WeatherCatV1.12B45,2013-02-06 18:37:00,
2013-02-06 13:42:00,35.5,21.0,30.00,West,259,2.0,8.0,55,0.00,,,0.01,WeatherCatV1.12B45,2013-02-06 18:42:00,
2013-02-06 13:47:00,35.2,21.1,30.00,West,268,1.0,8.0,56,0.00,,,0.01,WeatherCatV1.12B45,2013-02-06 18:47:00,
2013-02-06 13:52:00,35.2,21.1,30.00,West,276,4.0,6.0,56,0.00,,,0.01,WeatherCatV1.12B45,2013-02-06 18:52:00,
2013-02-06 13:57:00,35.3,21.6,30.00,WSW,251,4.0,4.0,57,0.00,,,0.01,WeatherCatV1.12B45,2013-02-06 18:57:00,
2013-02-06 14:02:00,35.5,21.8,30.00,SW,233,2.0,6.0,57,0.00,,,0.01,WeatherCatV1.12B45,2013-02-06 19:02:00,
2013-02-06 14:07:00,35.5,21.8,30.00,West,267,3.0,6.0,57,0.00,,,0.01,WeatherCatV1.12B45,2013-02-06 19:07:00,
2013-02-06 14:12:00,35.3,21.6,30.00,WNW,283,2.0,13.0,57,0.00,,,0.02,WeatherCatV1.12B45,2013-02-06 19:12:00,
2013-02-06 14:17:00,35.3,21.2,30.00,NW,305,4.0,10.0,56,0.00,,,0.02,WeatherCatV1.12B45,2013-02-06 19:17:00,
2013-02-06 14:22:00,35.2,21.1,30.01,West,269,4.0,11.0,56,0.00,,,0.02,WeatherCatV1.12B45,2013-02-06 19:22:00,
2013-02-06 14:27:00,34.8,20.3,30.01,WNW,282,6.0,10.0,55,0.00,,,0.02,WeatherCatV1.12B45,2013-02-06 19:27:00,
2013-02-06 14:32:00,34.9,20.4,30.01,WNW,298,1.0,3.0,55,0.00,,,0.02,WeatherCatV1.12B45,2013-02-06 19:32:00,
2013-02-06 14:37:00,35.0,20.5,30.01,SSW,203,4.0,6.0,55,0.00,,,0.02,WeatherCatV1.12B45,2013-02-06 19:37:00,
2013-02-06 14:42:00,35.8,20.4,30.01,SW,227,4.0,9.0,53,0.00,,,0.02,WeatherCatV1.12B45,2013-02-06 19:42:00,
2013-02-06 14:47:00,36.2,19.8,30.01,WNW,286,9.0,11.0,51,0.00,,,0.02,WeatherCatV1.12B45,2013-02-06 19:47:00,
2013-02-06 14:52:00,36.6,20.2,30.01,WSW,251,5.0,8.0,51,0.00,,,0.02,WeatherCatV1.12B45,2013-02-06 19:52:00,
2013-02-06 14:57:00,36.9,20.0,30.01,West,279,8.0,15.0,50,0.00,,,0.02,WeatherCatV1.12B45,2013-02-06 19:57:00,
2013-02-06 15:02:00,36.9,19.5,30.01,West,279,9.0,11.0,49,0.00,,,0.02,WeatherCatV1.12B45,2013-02-06 20:02:00,
2013-02-06 15:07:00,36.5,18.7,30.02,WSW,253,6.0,9.0,48,0.00,,,0.02,WeatherCatV1.12B45,2013-02-06 20:07:00,
2013-02-06 15:12:00,36.3,18.5,30.01,WSW,253,8.0,10.0,48,0.00,,,0.02,WeatherCatV1.12B45,2013-02-06 20:12:00,
2013-02-06 15:17:00,36.3,18.5,30.02,WSW,244,4.0,8.0,48,0.00,,,0.02,WeatherCatV1.12B45,2013-02-06 20:17:00,
2013-02-06 15:22:00,36.5,18.7,30.02,North,349,2.0,8.0,48,0.00,,,0.02,WeatherCatV1.12B45,2013-02-06 20:22:00,
2013-02-06 15:27:00,36.7,18.4,30.02,WSW,249,3.0,7.0,47,0.00,,,0.02,WeatherCatV1.12B45,2013-02-06 20:27:00,
2013-02-06 15:32:00,36.9,18.6,30.02,WNW,290,2.0,4.0,47,0.00,,,0.02,WeatherCatV1.12B45,2013-02-06 20:32:00,
2013-02-06 15:37:00,36.9,18.6,30.02,West,272,4.0,8.0,47,0.00,,,0.02,WeatherCatV1.12B45,2013-02-06 20:37:00,
2013-02-06 15:42:00,36.8,18.5,30.02,West,261,4.0,7.0,47,0.00,,,0.02,WeatherCatV1.12B45,2013-02-06 20:42:00,
2013-02-06 15:47:00,36.3,17.5,30.02,West,271,2.0,7.0,46,0.00,,,0.02,WeatherCatV1.12B45,2013-02-06 20:47:00,
2013-02-06 15:52:00,36.2,17.9,30.03,West,278,2.0,5.0,47,0.00,,,0.02,WeatherCatV1.12B45,2013-02-06 20:52:00,
2013-02-06 15:57:00,36.0,17.7,30.03,WSW,241,4.0,11.0,47,0.00,,,0.02,WeatherCatV1.12B45,2013-02-06 20:57:00,
2013-02-06 16:02:00,35.8,17.1,30.03,West,260,7.0,12.0,46,0.00,,,0.02,WeatherCatV1.12B45,2013-02-06 21:02:00,
2013-02-06 16:07:00,35.5,16.8,30.04,West,271,6.0,8.0,46,0.00,,,0.02,WeatherCatV1.12B45,2013-02-06 21:07:00,
2013-02-06 16:12:00,35.3,17.1,30.04,WSW,243,0.0,4.0,47,0.00,,,0.02,WeatherCatV1.12B45,2013-02-06 21:12:00,
2013-02-06 16:17:00,35.3,17.1,30.04,WSW,255,2.0,7.0,47,0.00,,,0.02,WeatherCatV1.12B45,2013-02-06 21:17:00,
2013-02-06 16:22:00,35.3,17.1,30.05,West,267,5.0,8.0,47,0.00,,,0.02,WeatherCatV1.12B45,2013-02-06 21:22:00,
2013-02-06 16:27:00,35.2,17.5,30.05,West,269,6.0,6.0,48,0.00,,,0.02,WeatherCatV1.12B45,2013-02-06 21:27:00,
2013-02-06 16:32:00,35.0,17.3,30.05,West,261,0.0,4.0,48,0.00,,,0.02,WeatherCatV1.12B45,2013-02-06 21:32:00,
2013-02-06 16:37:00,34.9,18.2,30.04,West,261,1.0,4.0,50,0.00,,,0.02,WeatherCatV1.12B45,2013-02-06 21:37:00,
2013-02-06 16:42:00,34.8,18.1,30.06,West,260,2.0,4.0,50,0.00,,,0.02,WeatherCatV1.12B45,2013-02-06 21:42:00,
2013-02-06 16:47:00,34.5,17.3,30.06,West,262,3.0,6.0,49,0.00,,,0.02,WeatherCatV1.12B45,2013-02-06 21:47:00,
2013-02-06 16:52:00,34.2,18.0,30.07,West,262,1.0,3.0,51,0.00,,,0.02,WeatherCatV1.12B45,2013-02-06 21:52:00,
2013-02-06 16:57:00,33.9,17.7,30.07,West,262,2.0,5.0,51,0.00,,,0.02,WeatherCatV1.12B45,2013-02-06 21:57:00,
2013-02-06 17:02:00,33.8,17.6,30.07,West,262,1.0,5.0,51,0.00,,,0.02,WeatherCatV1.12B45,2013-02-06 22:02:00,
2013-02-06 17:07:00,33.5,17.3,30.07,West,262,1.0,3.0,51,0.00,,,0.02,WeatherCatV1.12B45,2013-02-06 22:07:00,
2013-02-06 17:12:00,33.2,17.5,30.07,West,262,2.0,4.0,52,0.00,,,0.02,WeatherCatV1.12B45,2013-02-06 22:12:00,
2013-02-06 17:17:00,33.0,16.9,30.08,WSW,251,2.0,9.0,51,0.00,,,0.02,WeatherCatV1.12B45,2013-02-06 22:17:00,
2013-02-06 17:22:00,32.9,16.8,30.08,WSW,251,1.0,4.0,51,0.00,,,0.02,WeatherCatV1.12B45,2013-02-06 22:22:00,
2013-02-06 17:27:00,32.5,16.4,30.09,WSW,251,0.0,3.0,51,0.00,,,0.02,WeatherCatV1.12B45,2013-02-06 22:27:00,
2013-02-06 17:32:00,32.4,16.3,30.09,WSW,251,3.0,5.0,51,0.00,,,0.02,WeatherCatV1.12B45,2013-02-06 22:32:00,
2013-02-06 17:37:00,32.3,16.2,30.10,WSW,251,1.0,4.0,51,0.00,,,0.02,WeatherCatV1.12B45,2013-02-06 22:37:00,
2013-02-06 17:42:00,32.1,15.6,30.10,West,262,4.0,7.0,50,0.00,,,0.02,WeatherCatV1.12B45,2013-02-06 22:42:00,
2013-02-06 17:47:00,31.9,16.3,30.10,SSW,208,0.0,3.0,52,0.00,,,0.02,WeatherCatV1.12B45,2013-02-06 22:47:00,
2013-02-06 17:52:00,31.7,15.7,30.10,SSW,209,1.0,5.0,51,0.00,,,0.02,WeatherCatV1.12B45,2013-02-06 22:52:00,
2013-02-06 17:57:00,31.5,15.5,30.11,SSW,209,0.0,4.0,51,0.00,,,0.02,WeatherCatV1.12B45,2013-02-06 22:57:00,
2013-02-06 18:02:00,31.2,15.6,30.11,SSW,209,0.0,3.0,52,0.00,,,0.02,WeatherCatV1.12B45,2013-02-06 23:02:00,
2013-02-06 18:07:00,30.9,14.9,30.12,SSW,209,2.0,4.0,51,0.00,,,0.02,WeatherCatV1.12B45,2013-02-06 23:07:00,
2013-02-06 18:12:00,30.8,15.3,30.11,SSW,208,0.0,1.0,52,0.00,,,0.02,WeatherCatV1.12B45,2013-02-06 23:12:00,
2013-02-06 18:17:00,30.6,15.5,30.12,SSW,208,0.0,2.0,53,0.00,,,0.02,WeatherCatV1.12B45,2013-02-06 23:17:00,
2013-02-06 18:22:00,30.5,15.4,30.12,SSW,208,1.0,4.0,53,0.00,,,0.02,WeatherCatV1.12B45,2013-02-06 23:22:00,
2013-02-06 18:27:00,30.2,15.2,30.13,SSW,208,3.0,4.0,53,0.00,,,0.02,WeatherCatV1.12B45,2013-02-06 23:27:00,
2013-02-06 18:32:00,30.1,15.1,30.13,SSW,208,1.0,5.0,53,0.00,,,0.02,WeatherCatV1.12B45,2013-02-06 23:32:00,
2013-02-06 18:37:00,30.0,14.5,30.14,SSW,208,2.0,4.0,52,0.00,,,0.02,WeatherCatV1.12B45,2013-02-06 23:37:00,
2013-02-06 18:42:00,29.9,14.9,30.14,SSW,208,3.0,4.0,53,0.00,,,0.02,WeatherCatV1.12B45,2013-02-06 23:42:00,
2013-02-06 18:47:00,29.7,14.3,30.15,WSW,246,4.0,7.0,52,0.00,,,0.02,WeatherCatV1.12B45,2013-02-06 23:47:00,
2013-02-06 18:52:00,29.9,14.0,30.15,WSW,238,4.0,6.0,51,0.00,,,0.02,WeatherCatV1.12B45,2013-02-06 23:52:00,
2013-02-06 18:57:00,30.0,13.6,30.16,WSW,248,2.0,7.0,50,0.00,,,0.02,WeatherCatV1.12B45,2013-02-06 23:57:00,
2013-02-06 19:02:00,29.9,13.1,30.16,WSW,249,3.0,6.0,49,0.00,,,0.02,WeatherCatV1.12B45,2013-02-07 00:02:00,
2013-02-06 19:07:00,29.9,13.1,30.16,WNW,286,3.0,7.0,49,0.00,,,0.02,WeatherCatV1.12B45,2013-02-07 00:07:00,
2013-02-06 19:12:00,29.9,12.6,30.16,West,277,1.0,6.0,48,0.00,,,0.02,WeatherCatV1.12B45,2013-02-07 00:12:00,
2013-02-06 19:17:00,29.8,12.1,30.17,West,277,0.0,5.0,47,0.00,,,0.02,WeatherCatV1.12B45,2013-02-07 00:17:00,
2013-02-06 19:22:00,29.4,12.2,30.17,West,275,3.0,3.0,48,0.00,,,0.02,WeatherCatV1.12B45,2013-02-07 00:22:00,
2013-02-06 19:27:00,29.4,11.7,30.17,West,272,3.0,4.0,47,0.00,,,0.02,WeatherCatV1.12B45,2013-02-07 00:27:00,
2013-02-06 19:32:00,29.3,11.6,30.17,West,274,1.0,4.0,47,0.00,,,0.02,WeatherCatV1.12B45,2013-02-07 00:32:00,
2013-02-06 19:37:00,29.3,10.6,30.18,West,274,3.0,4.0,45,0.00,,,0.02,WeatherCatV1.12B45,2013-02-07 00:37:00,
2013-02-06 19:42:00,29.3,10.6,30.18,West,272,2.0,6.0,45,0.00,,,0.02,WeatherCatV1.12B45,2013-02-07 00:42:00,
2013-02-06 19:47:00,29.1,10.4,30.18,West,272,2.0,3.0,45,0.00,,,0.02,WeatherCatV1.12B45,2013-02-07 00:47:00,
2013-02-06 19:52:00,29.0,10.4,30.18,West,272,2.0,3.0,45,0.00,,,0.02,WeatherCatV1.12B45,2013-02-07 00:52:00,
2013-02-06 19:57:00,28.7,10.1,30.19,West,272,5.0,5.0,45,0.00,,,0.02,WeatherCatV1.12B45,2013-02-07 00:57:00,
2013-02-06 20:02:00,28.7,10.1,30.19,West,270,2.0,3.0,45,0.00,,,0.02,WeatherCatV1.12B45,2013-02-07 01:02:00,
2013-02-06 20:07:00,28.7,9.1,30.19,West,270,3.0,4.0,43,0.00,,,0.02,WeatherCatV1.12B45,2013-02-07 01:07:00,
2013-02-06 20:12:00,28.5,8.9,30.19,West,271,3.0,6.0,43,0.00,,,0.02,WeatherCatV1.12B45,2013-02-07 01:12:00,
2013-02-06 20:13:00,28.5,8.9,30.19,West,271,2.0,6.0,43,0.00,,,0.02,WeatherCatV1.12B45,2013-02-07 01:13:00,
2013-02-06 20:18:00,28.5,8.9,30.19,West,271,1.0,4.0,43,0.00,,,0.02,WeatherCatV1.12B45,2013-02-07 01:18:00,
2013-02-06 20:23:00,28.4,8.8,30.20,West,269,2.0,5.0,43,0.00,,,0.02,WeatherCatV1.12B45,2013-02-07 01:23:00,
2013-02-06 20:28:00,28.4,8.3,30.20,West,269,0.0,5.0,42,0.00,,,0.02,WeatherCatV1.12B45,2013-02-07 01:28:00,
2013-02-06 20:33:00,28.2,8.6,30.21,West,269,2.0,4.0,43,0.00,,,0.02,WeatherCatV1.12B45,2013-02-07 01:33:00,
2013-02-06 20:38:00,28.0,8.4,30.21,West,269,1.0,3.0,43,0.00,,,0.02,WeatherCatV1.12B45,2013-02-07 01:38:00,
2013-02-06 20:43:00,27.8,8.2,30.21,West,269,0.0,6.0,43,0.00,,,0.02,WeatherCatV1.12B45,2013-02-07 01:43:00,
2013-02-06 20:48:00,27.8,8.2,30.21,West,269,2.0,3.0,43,0.00,,,0.02,WeatherCatV1.12B45,2013-02-07 01:48:00,
2013-02-06 20:53:00,27.7,8.2,30.21,West,269,0.0,5.0,43,0.00,,,0.02,WeatherCatV1.12B45,2013-02-07 01:53:00,
2013-02-06 20:58:00,27.7,8.2,30.21,West,269,2.0,6.0,43,0.00,,,0.02,WeatherCatV1.12B45,2013-02-07 01:58:00,
2013-02-06 21:02:00,27.7,8.2,30.22,West,269,0.0,2.0,43,0.00,,,0.02,WeatherCatV1.12B45,2013-02-07 02:02:00,
2013-02-06 21:07:00,27.5,8.0,30.23,West,269,0.0,2.0,43,0.00,,,0.02,WeatherCatV1.12B45,2013-02-07 02:07:00,
2013-02-06 21:12:00,27.2,7.7,30.23,West,269,4.0,4.0,43,0.00,,,0.02,WeatherCatV1.12B45,2013-02-07 02:12:00,
2013-02-06 21:17:00,27.2,7.7,30.23,West,269,0.0,1.0,43,0.00,,,0.02,WeatherCatV1.12B45,2013-02-07 02:17:00,
2013-02-06 21:22:00,27.1,7.6,30.24,West,269,2.0,6.0,43,0.00,,,0.02,WeatherCatV1.12B45,2013-02-07 02:22:00,
2013-02-06 21:27:00,27.1,7.6,30.24,West,269,0.0,2.0,43,0.00,,,0.02,WeatherCatV1.12B45,2013-02-07 02:27:00,
2013-02-06 21:32:00,26.9,7.4,30.24,West,269,2.0,4.0,43,0.00,,,0.02,WeatherCatV1.12B45,2013-02-07 02:32:00,
2013-02-06 21:37:00,26.8,7.3,30.25,West,269,0.0,0.0,43,0.00,,,0.02,WeatherCatV1.12B45,2013-02-07 02:37:00,
2013-02-06 21:42:00,26.5,7.1,30.25,West,269,1.0,3.0,43,0.00,,,0.02,WeatherCatV1.12B45,2013-02-07 02:42:00,
2013-02-06 21:47:00,26.3,7.9,30.25,West,269,0.0,1.0,45,0.00,,,0.02,WeatherCatV1.12B45,2013-02-07 02:47:00,
2013-02-06 21:52:00,26.0,7.6,30.25,West,269,1.0,2.0,45,0.00,,,0.02,WeatherCatV1.12B45,2013-02-07 02:52:00,
2013-02-06 21:57:00,25.8,7.9,30.26,West,269,1.0,4.0,46,0.00,,,0.02,WeatherCatV1.12B45,2013-02-07 02:57:00,
2013-02-06 22:02:00,25.4,8.0,30.26,West,269,1.0,2.0,47,0.00,,,0.02,WeatherCatV1.12B45,2013-02-07 03:02:00,
2013-02-06 22:07:00,25.1,8.2,30.26,West,269,0.0,3.0,48,0.00,,,0.02,WeatherCatV1.12B45,2013-02-07 03:07:00,
2013-02-06 22:12:00,24.8,7.0,30.28,West,269,0.0,1.0,46,0.00,,,0.02,WeatherCatV1.12B45,2013-02-07 03:12:00,
2013-02-06 22:17:00,24.7,7.8,30.27,West,269,0.0,0.0,48,0.00,,,0.02,WeatherCatV1.12B45,2013-02-07 03:17:00,
2013-02-06 22:22:00,24.5,7.2,30.27,West,269,0.0,3.0,47,0.00,,,0.02,WeatherCatV1.12B45,2013-02-07 03:22:00,
2013-02-06 22:27:00,24.6,7.3,30.28,West,269,0.0,0.0,47,0.00,,,0.02,WeatherCatV1.12B45,2013-02-07 03:27:00,
2013-02-06 22:32:00,24.7,7.4,30.28,West,269,0.0,2.0,47,0.00,,,0.02,WeatherCatV1.12B45,2013-02-07 03:32:00,
2013-02-06 22:37:00,24.5,6.7,30.29,West,269,1.0,2.0,46,0.00,,,0.02,WeatherCatV1.12B45,2013-02-07 03:37:00,
2013-02-06 22:42:00,24.5,7.2,30.29,West,269,0.0,0.0,47,0.00,,,0.02,WeatherCatV1.12B45,2013-02-07 03:42:00,
2013-02-06 22:43:00,24.5,7.7,30.29,West,269,1.0,1.0,48,0.00,,,0.02,WeatherCatV1.12B45,2013-02-07 03:43:00,
2013-02-06 22:48:00,24.6,7.7,30.29,West,269,2.0,3.0,48,0.00,,,0.02,WeatherCatV1.12B45,2013-02-07 03:48:00,
2013-02-06 22:53:00,24.3,8.4,30.28,West,269,0.0,0.0,50,0.00,,,0.02,WeatherCatV1.12B45,2013-02-07 03:53:00,
2013-02-06 22:58:00,23.9,8.4,30.29,West,269,1.0,2.0,51,0.00,,,0.02,WeatherCatV1.12B45,2013-02-07 03:58:00,
2013-02-06 23:03:00,23.8,7.9,30.29,West,269,0.0,1.0,50,0.00,,,0.02,WeatherCatV1.12B45,2013-02-07 04:03:00,
2013-02-06 23:08:00,23.5,8.5,30.29,West,269,0.0,0.0,52,0.00,,,0.02,WeatherCatV1.12B45,2013-02-07 04:08:00,
2013-02-06 23:13:00,23.4,8.4,30.29,West,269,0.0,0.0,52,0.00,,,0.02,WeatherCatV1.12B45,2013-02-07 04:13:00,
2013-02-06 23:18:00,23.5,7.2,30.29,West,270,5.0,5.0,49,0.00,,,0.02,WeatherCatV1.12B45,2013-02-07 04:18:00,
2013-02-06 23:23:00,23.9,7.1,30.30,West,270,1.0,3.0,48,0.00,,,0.02,WeatherCatV1.12B45,2013-02-07 04:23:00,
2013-02-06 23:28:00,24.1,7.3,30.29,West,270,3.0,4.0,48,0.00,,,0.02,WeatherCatV1.12B45,2013-02-07 04:28:00,
2013-02-06 23:33:00,24.3,7.0,30.30,West,271,1.0,3.0,47,0.00,,,0.02,WeatherCatV1.12B45,2013-02-07 04:33:00,
2013-02-06 23:38:00,24.4,6.6,30.29,WNW,282,4.0,7.0,46,0.00,,,0.02,WeatherCatV1.12B45,2013-02-07 04:38:00,
2013-02-06 23:43:00,24.4,6.1,30.30,NNW,341,4.0,4.0,45,0.00,,,0.02,WeatherCatV1.12B45,2013-02-07 04:43:00,
2013-02-06 23:48:00,24.4,5.7,30.31,NNW,335,4.0,5.0,44,0.00,,,0.02,WeatherCatV1.12B45,2013-02-07 04:48:00,
2013-02-06 23:53:00,24.3,5.6,30.31,North,350,2.0,3.0,44,0.00,,,0.02,WeatherCatV1.12B45,2013-02-07 04:53:00,
2013-02-06 23:58:00,24.1,5.9,30.31,NNW,344,0.0,4.0,45,0.00,,,0.02,WeatherCatV1.12B45,2013-02-07 04:58:00,